TimeCST,TemperatureF,Dew PointF,Humidity,Sea Level PressureIn,VisibilityMPH,Wind Direction,Wind SpeedMPH,Gust SpeedMPH,PrecipitationIn,Events,Conditions,WindDirDegrees,DateUTC
12:52 AM,15.1,9.0,77,30.10,10.0,ENE,3.5,-,N/A,,Partly Cloudy,60,2014-01-31 06:52:00
1:52 AM,15.1,9.0,77,30.07,10.0,NNE,4.6,-,N/A,,Mostly Cloudy,30,2014-01-31 07:52:00
2:52 AM,15.1,9.0,77,30.08,10.0,Calm,Calm,-,N/A,,Overcast,0,2014-01-31 08:52:00
3:52 AM,15.1,9.0,77,30.09,10.0,NNE,3.5,-,N/A,,Overcast,30,2014-01-31 09:52:00
4:52 AM,15.1,8.1,74,30.09,10.0,Calm,Calm,-,N/A,,Clear,0,2014-01-31 10:52:00
5:52 AM,14.0,8.1,77,30.09,10.0,East,3.5,-,N/A,,Clear,80,2014-01-31 11:52:00
6:52 AM,14.0,9.0,80,30.09,10.0,East,4.6,-,N/A,,Clear,80,2014-01-31 12:52:00
7:52 AM,12.9,8.1,81,30.11,10.0,SSE,4.6,-,N/A,,Overcast,150,2014-01-31 13:52:00
8:52 AM,14.0,9.0,80,30.12,10.0,SSE,5.8,-,N/A,,Scattered Clouds,160,2014-01-31 14:52:00
9:52 AM,18.0,10.0,71,30.08,10.0,South,10.4,-,N/A,,Clear,190,2014-01-31 15:52:00
10:52 AM,21.0,10.9,65,30.07,10.0,South,11.5,-,N/A,,Clear,180,2014-01-31 16:52:00
11:52 AM,25.0,12.0,58,30.04,10.0,SSW,13.8,-,N/A,,Clear,200,2014-01-31 17:52:00
12:52 PM,28.9,12.9,51,29.98,10.0,SSW,16.1,23.0,N/A,,Clear,200,2014-01-31 18:52:00
1:52 PM,28.9,14.0,54,29.94,10.0,SSW,15.0,-,N/A,,Clear,210,2014-01-31 19:52:00
2:52 PM,28.9,14.0,54,29.91,10.0,SSW,18.4,23.0,N/A,,Clear,200,2014-01-31 20:52:00
3:52 PM,28.9,15.1,56,29.89,10.0,SSW,13.8,23.0,N/A,,Clear,210,2014-01-31 21:52:00
4:52 PM,28.0,15.1,58,29.89,10.0,SSW,16.1,-,N/A,,Clear,210,2014-01-31 22:52:00
5:52 PM,26.1,15.1,63,29.89,10.0,SSW,15.0,-,N/A,,Clear,200,2014-01-31 23:52:00
6:52 PM,25.0,15.1,66,29.89,10.0,SSW,12.7,-,N/A,,Clear,210,2014-02-01 00:52:00
7:52 PM,23.0,15.1,72,29.91,10.0,SSW,9.2,-,N/A,,Clear,210,2014-02-01 01:52:00
8:52 PM,21.0,15.1,78,29.94,10.0,SW,9.2,-,N/A,,Mostly Cloudy,230,2014-02-01 02:52:00
9:52 PM,21.9,15.1,75,29.92,10.0,SW,12.7,-,N/A,,Overcast,220,2014-02-01 03:52:00
10:52 PM,19.9,14.0,78,29.92,10.0,SW,8.1,-,N/A,,Mostly Cloudy,230,2014-02-01 04:52:00
11:52 PM,19.0,14.0,81,29.92,10.0,WSW,4.6,-,N/A,,Overcast,250,2014-02-01 05:52:00